Location: Arrington
(35.8681°N, 86.7092°W)
Time: 02:10:58
(UTC+00:00)

STARLINK-67 - Pass Details

Date: 23 November 2019
Orbit: 298 x 323 km, 53.0° (Epoch: 14 December)

Event Time Altitude Azimuth Distance (km) Brightness Sun altitude
Exits shadow 09:30:55 -2° 101° (E) 2,202 7.7 -36.1°
Enters shadow 10:26:40 -64° 312° (NW) 11,855 10.4 -24.9°
Sets 11:05:02 0° 154° (SSE) 1,982 7.1 -17.3°
